Temp
77 80 81 80 80 82 80 82 76 81 82 87 89 89 92 96 95 95 94 94 94 93 94 95 95 93 93 100 97 98 94 97 96 96 97 95 91 90 91 90 88 87 86 86
71 78 78 75 79 80 81 82 82 83 82 94 95 90 94 96 93 94 92 92 93 94 96 96 95 96 95 95 96 96 91 93 92 89 88 88 87 87 88 88 86 86 86 86
63 73 73 67 76 79 80 84 83 77 85 92 91 91 93 96 94 92 92 91 91 94 96 96 97 97 95 97 99 95 92 90 92 88 86 87 88 86 86 86 87 85 85 86
64 67 54 74 84 84 81 84 87 87 88 91 92 96 98 100 97 91 91 91 91 95 96 96 97 98 95 96 94 90 88 89 88 89 88 87 87 86 85 86 85 85 85 85
60 61 67 73 79 79 77 77 86 86 88 91 94 96 94 100 97 91 91 92 94 96 96 94 94 96 96 93 92 89 88 86 87 87 87 87 86 86 86 85 85 85 85 84
65 57 53 70 81 86 85 68 86 88 87 88 91 82 85 92 93 92 92 93 91 93 94 96 94 96 94 93 91 89 87 87 86 88 86 86 85 85 86 86 85 87 86 86
64 61 67 78 81 86 64 68 85 86 84 83 84 81 84 90 89 90 90 90 92 92 92 93 94 94 88 90 88 88 88 86 86 86 85 86 86 86 86 84 84 84 84 73
64 58 54 80 75 65 71 80 84 85 85 82 83 85 86 87 86 87 88 89 91 89 89 91 90 88 85 85 86 86 86 85 86 86 89 89 85 85 83 83 82 80 75 70
61 61 69 73 72 77 78 76 77 80 86 84 81 81 84 82 85 86 87 87 88 86 86 87 85 83 82 82 82 81 85 82 85 86 86 85 83 81 81 80 77 73 74 70
57 62 64 67 69 70 71 70 75 76 79 81 82 82 81 82 83 84 84 84 86 83 81 80 82 81 81 80 80 79 83 84 84 83 82 79 79 77 77 75 73 73 72 70
51 56 60 62 65 67 68 69 71 78 76 78 83 82 81 80 80 82 82 83 81 80 79 78 79 79 79 80 79 76 80 78 70 68 61 54 50 51 58 53 60 72 69 68
45 56 53 55 62 66 64 65 71 74 68 76 81 81 80 78 79 80 80 79 78 77 76 74 76 77 78 78 78 73 68 68 67 64 61 59 57 54 51 52 52 52 54 58
49 56 55 56 59 62 62 64 68 73 73 70 81 81 80 78 80 76 80 75 72 70 68 67 67 68 73 76 73 70 68 67 64 62 62 61 61 59 55 52 51 48 49 49
57 55 51 54 52 58 60 62 66 72 74 74 82 81 80 79 80 74 67 66 64 63 63 63 63 63 66 68 67 67 64 59 65 65 65 61 61 61 59 58 56 54 49 50
60 61 60 63 59 55 59 60 66 70 73 77 81 79 78 77 68 63 63 62 62 61 61 61 62 62 64 65 65 64 63 64 63 62 62 61 63 61 59 57 54 53 55 51
64 64 61 62 54 57 59 63 68 71 75 78 78 78 70 64 60 59 59 59 58 57 59 60 61 62 64 64 63 63 63 62 63 63 63 62 62 61 60 57 57 56 58 58
65 59 54 53 56 58 61 68 71 74 76 77 77 68 62 60 58 57 57 58 58 58 58 60 59 61 63 64 64 63 64 65 64 65 65 66 69 69 68 68 68 68 65 60
69 68 63 65 65 65 68 73 71 69 72 71 66 62 59 58 56 57 58 59 59 59 59 59 61 61 61 62 62 62 64 67 68 71 72 72 72 72 70 70 66 64 64 63
70 70 72 68 67 68 66 68 72 68 65 62 61 59 58 59 59 58 59 60 59 58 61 64 64 67 67 66 65 65 66 67 67 68 69 66 69 70 69 69 67 66 66 65
69 72 75 73 74 71 67 67 66 62 61 60 59 56 55 55 57 58 59 57 61 63 67 66 64 64 64 63 61 58 58 58 58 59 62 66 66 66 66 62 67 68 68 69
67 68 69 70 69 68 64 62 60 58 58 58 56 56 56 58 60 60 59 58 62 66 68 66 68 67 68 69 68 67 65 65 66 64 65 65 66 65 66 69 69 69 70 70
63 61 60 61 60 60 61 60 59 58 58 59 60 62 63 63 64 64 65 63 65 63 67 69 69 63 69 69 71 70 69 69 68 68 69 69 69 69 69 69 69 70 70 70
60 61 61 59 58 57 59 59 59 60 60 62 64 67 68 69 69 65 62 66 69 64 68 67 61 62 64 70 70 69 70 68 69 70 70 70 70 70 69 67 69 70 70 70
60 60 59 60 59 58 57 59 61 64 65 68 66 66 66 63 63 64 63 59 58 63 65 63 63 62 66 70 70 69 69 68 68 68 68 59 69 70 71 71 70 71 66 62
61 61 61 60 59 58 61 63 64 66 68 66 66 71 72 72 67 67 68 66 59 66 69 60 62 66 71 71 71 70 70 71 71 72 67 67 68 66 66 64 65 63 66 69
61 61 63 62 61 62 63 65 66 69 67 67 72 74 74 73 73 73 72 69 72 66 73 72 74 74 74 74 73 70 69 72 70 72 70 71 72 72 72 72 70 69 68 66
62 57 62 61 63 65 68 69 67 63 62 67 71 75 76 76 75 75 70 76 76 76 75 75 76 72 75 76 76 76 70 71 65 73 74 72 71 71 71 71 67 70 69 68
MSLP
999.87 999.15 998.17 996.63 996.13 995.50 994.70 994.17 993.58 992.82 992.33 992.16 992.89 993.82 994.70 994.49 995.15 995.57 996.07 996.00 995.89 996.21 996.27 996.18 996.27 996.41 996.86 997.44 998.61 999.50 1000.25 1000.94 1001.68 1002.37 1002.84 1003.37 1004.20 1004.67 1005.28 1005.79 1006.43 1007.04 1007.64 1007.90
1000.08 999.86 999.22 997.91 996.69 996.28 995.62 994.94 994.21 993.80 992.89 992.62 992.54 993.48 994.27 994.34 994.90 995.66 996.42 996.85 996.80 996.69 996.60 996.67 996.80 996.62 997.29 997.75 998.25 998.95 999.73 1000.17 1000.77 1001.41 1002.13 1002.61 1003.24 1003.91 1004.50 1004.99 1005.60 1006.21 1006.44 1006.81
1000.17 1000.63 999.81 997.45 997.14 996.43 995.90 995.44 994.89 994.12 993.53 993.16 992.64 992.88 993.70 993.97 994.54 995.43 996.50 997.20 997.50 997.27 997.22 997.43 997.47 997.52 997.84 998.14 998.49 999.04 999.70 1000.02 1000.49 1001.05 1001.34 1001.82 1002.48 1003.16 1003.68 1004.11 1004.85 1005.46 1005.78 1006.20
1001.38 1001.57 999.54 996.90 997.78 996.90 995.94 995.17 994.66 994.20 994.08 993.90 993.23 992.55 992.95 993.51 993.87 995.07 996.49 997.30 997.81 997.75 997.75 998.02 998.22 998.05 998.24 998.48 998.87 999.19 999.45 999.85 1000.12 1000.55 1001.06 1001.37 1001.77 1002.36 1003.01 1003.49 1003.85 1004.44 1005.20 1005.63
1001.66 1000.76 998.65 998.76 998.13 997.34 996.36 995.79 995.43 994.66 994.40 993.87 993.49 993.13 992.72 993.35 994.50 995.65 996.74 997.29 997.81 998.15 998.25 998.48 998.47 998.30 998.42 998.52 998.69 999.04 999.42 999.56 999.82 1000.04 1000.29 1000.79 1001.14 1001.60 1002.18 1002.92 1003.58 1004.05 1004.54 1005.13
1001.21 1000.40 999.02 999.20 998.60 998.02 997.24 996.38 995.97 995.40 995.07 994.77 994.19 993.81 994.34 994.52 995.52 996.68 997.21 997.62 998.29 998.74 998.87 998.49 998.44 998.35 998.34 998.41 998.59 998.72 998.88 999.02 999.28 999.66 1000.00 1000.23 1000.54 1000.89 1001.42 1002.12 1002.82 1003.60 1004.21 1004.55
1000.93 1000.11 999.47 999.21 999.15 998.67 998.41 997.90 997.01 996.53 996.51 996.47 995.38 996.28 996.07 996.44 997.34 997.85 998.10 998.43 998.77 999.14 999.10 999.02 998.96 998.94 998.88 998.68 998.82 998.85 998.69 998.50 998.46 998.82 999.34 999.80 1000.31 1000.83 1001.17 1001.73 1002.40 1003.10 1004.09 1005.39
1002.48 1001.75 1000.60 1000.68 1000.69 1000.80 1000.73 999.43 998.15 997.46 997.22 997.51 997.51 997.49 997.31 997.66 998.47 998.71 998.84 999.22 999.38 999.54 999.56 999.52 999.66 999.77 999.64 999.23 999.33 999.12 998.53 998.37 998.22 998.35 998.94 999.44 999.92 1000.41 1001.08 1002.02 1002.86 1003.54 1004.58 1005.75
1004.94 1003.63 1003.14 1002.84 1002.39 1002.25 1001.97 1001.07 1000.29 999.32 997.83 997.90 998.23 998.27 998.11 998.71 998.89 998.93 999.60 1000.01 1000.04 1000.19 1000.03 999.95 1000.06 1000.24 1000.00 999.88 999.80 999.54 998.61 998.50 998.40 998.29 998.63 999.50 999.90 1000.49 1001.17 1000.60 1002.85 1003.75 1004.74 1005.92
1007.13 1005.39 1004.95 1004.61 1003.95 1003.63 1003.40 1002.62 1001.75 1000.82 1000.01 998.91 999.16 998.85 998.88 999.18 999.30 1000.06 1000.63 1000.80 1000.81 1000.81 1000.60 1000.44 1000.29 1000.29 1000.11 1000.00 999.79 999.55 998.62 998.36 998.30 998.52 999.06 999.80 1000.16 1000.80 1001.62 1002.28 1003.01 1003.70 1004.44 1006.05
1007.91 1006.98 1006.12 1005.13 1004.62 1004.09 1003.61 1003.08 1002.40 1001.02 1000.90 1000.13 999.34 999.10 999.20 999.86 1000.47 1000.87 1001.14 1001.41 1001.54 1001.47 1001.10 1000.73 1000.32 1000.09 1000.09 999.87 999.78 999.44 998.73 998.78 999.69 1000.29 1001.08 1002.36 1003.26 1003.81 1004.03 1003.90 1003.83 1003.53 1004.76 1006.03
1007.62 1006.50 1006.02 1005.09 1004.65 1004.36 1004.07 1003.18 1002.01 1001.23 1001.28 1000.62 999.12 998.95 999.63 1000.57 1001.16 1001.21 1001.33 1001.74 1001.86 1002.08 1001.89 1001.44 1000.75 1000.23 1000.10 1000.03 999.82 999.63 999.97 1000.39 1000.79 1001.50 1002.36 1003.06 1003.80 1005.00 1005.53 1005.49 1004.23 1004.87 1005.38 1007.12
1006.72 1005.57 1004.96 1004.38 1004.26 1004.08 1003.91 1003.43 1002.38 1001.35 1000.77 1001.03 999.49 999.41 999.99 1000.61 1001.05 1001.35 1001.61 1002.25 1002.86 1003.13 1002.98 1002.57 1001.95 1001.27 1000.39 999.93 999.87 1000.06 1000.59 1001.16 1001.80 1002.24 1002.97 1003.52 1004.08 1004.80 1005.62 1007.44 1007.05 1007.81 1008.22 1008.37
1005.53 1004.43 1002.89 1002.65 1002.16 1002.11 1003.01 1003.03 1002.26 1001.36 1000.96 1000.03 998.56 999.28 1000.24 1000.92 1001.23 1001.95 1003.28 1003.83 1004.15 1003.96 1003.63 1003.29 1002.71 1001.91 1001.17 1000.70 1000.89 1001.12 1001.76 1002.03 1002.28 1003.09 1003.31 1004.29 1004.84 1005.58 1005.98 1006.80 1007.80 1009.10 1009.67 1010.01
1002.90 1001.61 1000.00 999.24 999.67 1000.65 1002.07 1002.41 1001.31 1000.68 1000.11 999.32 999.18 999.97 1000.71 1001.30 1002.60 1003.92 1004.51 1004.71 1004.66 1004.34 1004.34 1003.91 1003.28 1002.83 1002.29 1002.04 1002.09 1002.36 1002.70 1003.08 1003.39 1003.80 1004.27 1004.81 1005.16 1005.93 1006.83 1007.92 1008.68 1009.58 1010.41 1010.77
1001.44 1000.29 997.72 997.05 998.59 1000.17 1001.10 1001.03 1000.25 999.94 999.48 999.34 999.78 1000.41 1001.86 1003.51 1004.47 1005.08 1005.38 1005.51 1005.25 1005.41 1005.21 1004.61 1004.06 1003.99 1003.38 1003.13 1003.35 1003.62 1003.89 1004.30 1004.42 1004.65 1005.02 1005.48 1005.97 1006.01 1007.08 1008.07 1009.05 1009.84 1010.15 1010.94
1000.78 1000.35 1000.14 999.73 999.92 1000.42 1000.56 1000.01 999.81 999.58 999.55 999.72 1000.26 1001.89 1003.72 1004.72 1005.35 1005.91 1006.11 1006.19 1006.26 1006.18 1005.92 1005.43 1005.02 1004.56 1004.21 1004.23 1004.29 1004.56 1004.86 1005.05 1005.24 1005.20 1005.24 1005.45 1005.64 1006.37 1007.25 1007.68 1008.16 1008.88 1010.21 1010.81
1000.57 1000.29 1000.32 1000.01 999.74 999.76 999.44 999.33 999.68 999.84 1000.36 1000.70 1002.38 1003.68 1004.68 1005.23 1005.87 1006.39 1006.72 1006.58 1006.65 1006.61 1006.43 1006.13 1005.65 1005.31 1005.22 1005.17 1005.24 1005.25 1005.50 1005.70 1005.59 1005.68 1005.85 1006.14 1006.35 1006.71 1007.24 1007.86 1008.58 1009.35 1009.68 1010.08
1000.70 999.96 999.35 999.32 999.56 999.52 999.53 999.73 999.95 1000.93 1001.98 1002.99 1003.84 1004.72 1005.33 1005.82 1006.35 1006.70 1006.87 1007.04 1007.10 1007.07 1007.19 1006.86 1006.43 1005.97 1006.01 1006.12 1006.12 1006.26 1006.57 1006.71 1007.01 1007.00 1007.13 1007.78 1007.70 1007.50 1007.91 1008.62 1008.97 1009.34 1010.00 1010.36
1000.99 1000.19 999.52 999.58 999.43 999.76 1000.18 1000.69 1001.55 1002.75 1003.56 1004.19 1004.75 1005.48 1006.17 1006.75 1006.96 1007.20 1007.39 1007.44 1007.75 1007.71 1007.50 1007.43 1007.28 1007.11 1007.30 1007.48 1007.36 1007.31 1007.54 1007.90 1008.12 1008.67 1008.29 1009.18 1009.31 1008.56 1008.76 1009.07 1009.31 1009.28 1009.64 1009.99
1001.77 1001.46 1001.07 1000.92 1001.18 1001.66 1002.54 1002.95 1003.38 1004.22 1004.81 1005.13 1005.68 1006.57 1007.00 1006.99 1007.41 1007.53 1007.64 1007.60 1008.30 1008.20 1007.96 1007.76 1007.51 1007.46 1007.65 1007.63 1007.53 1007.50 1008.34 1008.86 1009.03 1009.39 1009.86 1009.70 1009.46 1009.05 1009.25 1009.25 1009.50 1009.72 1009.92 1010.07
1003.49 1003.09 1002.68 1002.74 1002.98 1003.60 1004.09 1004.48 1004.80 1005.35 1005.98 1006.36 1006.61 1006.83 1006.88 1007.42 1007.56 1007.74 1007.86 1007.73 1008.37 1008.33 1008.11 1008.07 1008.06 1008.15 1007.84 1007.91 1008.07 1008.11 1008.47 1008.82 1009.03 1009.33 1009.42 1009.50 1009.41 1009.55 1009.75 1009.86 1009.93 1010.01 1010.17 1010.32
1004.77 1004.52 1004.41 1004.44 1004.88 1005.23 1005.61 1005.87 1006.01 1006.13 1006.44 1006.78 1007.04 1007.19 1007.20 1007.29 1007.66 1008.17 1008.50 1008.92 1008.82 1009.03 1008.97 1009.02 1008.90 1008.77 1008.77 1008.70 1008.71 1008.91 1009.14 1009.38 1009.58 1009.75 1009.82 1009.84 1009.79 1009.76 1009.87 1010.34 1010.29 1010.23 1010.24 1010.26
1006.01 1005.71 1005.66 1005.80 1006.30 1005.68 1006.61 1006.94 1006.75 1006.87 1006.93 1007.10 1007.50 1007.79 1007.96 1008.25 1008.71 1009.13 1009.39 1009.54 1009.44 1009.36 1009.49 1009.57 1009.53 1009.33 1009.24 1009.40 1009.57 1009.61 1009.83 1010.06 1010.25 1010.33 1010.31 1010.36 1010.29 1010.18 1010.03 1010.01 1010.24 1009.99 1010.26 1010.55
1007.09 1006.97 1006.86 1007.02 1007.10 1007.52 1007.65 1007.73 1007.62 1007.31 1007.19 1007.60 1007.79 1007.73 1007.92 1008.21 1008.65 1009.25 1009.58 1009.73 1009.81 1009.77 1009.89 1009.95 1009.79 1009.63 1009.69 1009.80 1009.84 1009.99 1010.09 1010.09 1010.14 1010.04 1010.14 1010.17 1010.20 1010.27 1010.28 1010.45 1010.48 1010.55 1010.56 1010.47
1007.35 1007.53 1007.67 1007.85 1008.12 1008.14 1008.00 1007.78 1007.60 1007.90 1008.21 1008.13 1007.99 1008.07 1008.28 1008.55 1008.86 1009.10 1009.34 1009.56 1009.64 1009.73 1009.75 1009.91 1009.90 1009.90 1009.82 1009.74 1009.84 1010.02 1010.08 1010.27 1010.26 1010.29 1010.22 1010.23 1010.25 1010.18 1009.98 1009.96 1010.20 1010.47 1010.71 1010.82
1007.69 1007.77 1008.11 1008.41 1008.38 1008.23 1007.96 1007.95 1008.49 1008.79 1008.74 1008.48 1008.09 1008.13 1008.29 1008.47 1008.63 1008.73 1008.92 1009.03 1009.24 1009.50 1009.65 1009.76 1009.84 1009.85 1009.77 1009.51 1009.42 1009.69 1010.14 1010.39 1010.38 1010.21 1009.99 1010.30 1010.44 1010.49 1010.53 1010.45 1010.59 1010.60 1010.80 1010.84
Wind_Speed
20 23 24 28 25 25 24 20 19 20 20 8 8 19 8 5 6 5 7 10 11 10 8 7 7 7 11 16 16 15 11 18 17 16 16 16 15 12 15 15 15 14 11 13
25 23 23 26 28 25 26 25 23 23 25 22 14 13 14 9 13 5 4 7 9 9 9 9 9 2 7 6 9 13 12 9 14 13 13 10 12 15 10 12 15 15 15 14
22 20 22 26 22 25 25 25 25 23 24 22 23 19 11 12 8 8 7 6 8 7 8 8 5 3 5 3 3 4 5 6 4 7 13 13 11 13 14 12 14 15 15 14
18 18 25 18 20 25 25 25 23 23 21 23 24 23 17 16 8 14 9 6 4 6 6 9 9 8 6 5 2 6 7 8 8 7 8 10 11 12 14 13 14 14 13 14
15 18 25 21 21 21 22 21 23 24 23 26 21 20 19 14 6 13 9 6 3 7 10 4 6 4 4 5 6 6 8 11 10 11 12 10 12 12 13 13 12 11 11 13
14 21 26 17 20 22 21 17 19 23 23 19 17 14 4 15 15 10 8 7 6 7 9 10 8 7 7 6 7 6 8 9 11 10 11 11 13 13 12 12 13 11 11 9
15 20 19 14 17 18 18 15 17 16 13 16 16 7 13 14 11 9 8 7 6 6 7 8 8 12 11 7 8 8 7 7 9 12 12 12 10 11 11 13 13 13 10 7
17 20 26 14 18 14 19 22 20 22 4 7 11 9 9 11 8 7 7 9 9 8 7 9 9 11 14 7 10 11 7 6 5 10 9 10 12 12 12 12 12 10 12 10
17 16 23 26 24 21 22 23 20 19 4 1 1 6 7 7 8 8 9 10 10 10 10 6 7 9 10 10 12 14 9 6 5 6 7 7 10 11 10 14 9 10 10 9
20 18 23 24 25 26 24 24 26 12 20 8 6 4 4 7 10 10 10 11 10 11 11 10 7 9 11 10 11 13 10 5 5 6 5 2 3 3 7 7 9 11 10 10
18 24 24 23 19 18 21 22 24 22 16 16 14 6 0 7 9 10 8 10 11 11 11 13 11 9 8 10 9 10 8 3 10 9 13 12 13 9 6 5 1 9 9 11
16 25 20 23 23 23 23 22 21 17 14 13 20 3 3 4 8 9 7 9 8 11 12 12 14 12 11 9 9 6 8 6 7 9 8 9 10 13 25 15 25 20 20 10
26 28 28 29 26 25 23 23 22 19 8 23 19 3 2 7 7 6 7 10 11 12 10 9 10 11 10 6 5 8 9 8 7 9 8 7 8 9 15 15 28 24 18 17
24 27 29 30 19 22 17 22 22 21 15 20 9 4 4 9 10 10 10 8 6 6 7 7 6 9 8 10 8 11 9 13 7 5 9 8 8 8 8 10 10 9 15 9
23 22 25 23 20 17 15 18 21 17 14 13 3 2 8 9 12 9 8 6 6 8 7 8 10 12 12 13 13 13 9 9 9 10 8 8 9 9 10 9 9 8 6 6
22 22 22 8 14 15 16 18 18 13 11 6 4 6 13 13 11 10 10 8 9 8 8 9 11 10 11 13 13 11 11 15 10 7 7 8 6 9 8 8 7 5 5 3
14 16 11 9 7 9 13 14 15 13 5 5 5 16 14 13 12 11 10 9 8 8 8 8 11 10 8 6 8 6 4 4 4 3 5 4 6 8 8 7 7 8 7 4
10 2 5 2 5 8 11 9 7 5 3 13 17 14 14 13 13 11 10 10 10 11 11 8 8 11 13 9 9 8 9 9 10 7 8 8 6 7 8 8 7 7 6 3
11 8 6 7 7 1 2 4 4 17 16 15 15 15 13 13 11 9 5 9 10 10 8 10 14 13 14 17 13 10 9 10 9 8 7 7 7 7 6 7 6 7 5 3
9 7 4 6 5 9 13 16 20 15 14 16 16 16 15 12 11 11 10 12 9 6 9 11 9 10 11 12 14 9 11 12 11 11 9 6 5 7 7 6 4 5 4 2
13 14 10 10 14 18 17 14 16 15 14 16 16 14 13 10 9 10 10 9 5 5 8 8 6 5 6 7 6 8 6 7 5 5 5 3 3 4 4 3 4 4 3 4
13 14 14 16 17 16 14 15 16 16 16 14 11 12 13 11 11 11 9 9 4 3 7 8 8 10 7 9 5 6 6 6 5 4 5 5 5 5 4 4 4 4 3 2
11 12 13 15 15 15 15 14 15 16 13 12 12 9 10 9 8 8 9 7 8 9 8 6 9 12 6 6 7 7 8 6 6 5 5 5 5 4 6 6 4 3 2 2
13 11 12 15 16 17 17 9 9 9 9 10 12 11 10 8 8 7 7 7 9 8 6 5 7 9 9 7 7 8 8 7 6 4 3 2 3 3 2 1 2 2 2 2
9 10 10 11 12 10 11 9 6 8 12 9 6 7 12 8 8 8 7 6 8 8 5 4 6 6 7 6 6 6 5 4 3 3 3 3 4 3 3 3 3 4 5 5
6 5 7 8 7 4 4 4 7 9 7 6 7 8 8 8 8 8 7 9 8 9 8 6 5 5 4 4 6 6 4 6 1 4 4 4 3 3 5 4 5 6 6 5
5 6 8 7 4 4 3 8 8 5 1 1 7 7 8 7 7 8 9 9 8 8 7 7 6 5 3 3 5 8 7 5 5 3 4 7 6 7 7 6 3 4 5 6
Wind_Direction
276 283 285 290 291 292 288 287 287 294 298 298 100 91 319 111 78 70 38 34 34 24 17 6 21 185 175 178 181 191 204 193 201 207 205 198 200 202 199 188 194 196 207 195
276 279 280 279 276 278 281 282 275 279 282 285 290 137 193 180 144 160 80 35 32 12 15 47 27 176 177 207 170 190 201 205 198 190 198 197 192 192 191 192 191 191 201 208
280 293 297 276 273 263 263 264 271 267 274 286 287 289 280 280 169 155 119 62 14 347 35 35 3 18 11 152 224 215 209 224 199 197 193 195 184 185 191 187 184 195 201 201
275 279 263 272 275 281 285 282 276 263 266 266 277 285 276 282 147 123 125 86 14 340 353 26 358 340 0 348 273 230 226 219 220 196 205 200 184 182 189 189 190 191 196 209
265 260 271 274 280 288 294 289 289 281 284 283 288 279 266 243 158 110 110 110 39 353 352 355 282 309 294 244 237 220 242 235 223 215 207 193 195 187 185 189 194 194 196 207
252 260 269 295 312 320 322 298 283 277 289 307 283 271 40 73 91 94 80 54 23 339 319 323 343 326 307 342 328 273 233 238 216 218 219 212 202 195 184 190 191 192 198 197
278 275 270 272 281 275 270 298 311 321 342 344 292 59 75 67 58 46 28 5 3 308 324 323 346 333 329 319 311 308 301 247 219 209 206 214 205 203 193 189 190 192 178 111
282 283 279 306 338 342 323 313 314 297 289 328 358 38 48 55 42 22 7 342 339 327 329 326 5 340 312 315 318 307 271 273 241 198 207 206 206 198 190 190 195 172 131 111
300 293 317 312 304 306 308 301 327 324 314 275 336 327 30 16 6 3 358 338 340 334 318 338 346 317 317 321 320 317 271 246 223 214 190 211 203 208 203 181 173 143 143 120
313 295 299 304 302 302 297 304 307 309 313 332 270 280 348 355 0 347 339 333 332 327 330 321 324 319 303 301 308 311 292 246 225 201 148 30 45 99 155 144 155 145 141 132
278 283 286 273 269 285 290 283 281 290 288 298 214 199 338 344 333 316 334 317 343 320 319 312 307 301 302 307 307 298 298 60 70 80 89 79 61 35 38 52 13 131 117 128
265 272 263 263 267 276 280 277 282 285 308 253 289 186 120 295 293 303 326 329 332 326 321 326 314 305 303 289 273 100 86 81 95 100 91 101 99 82 47 42 78 69 78 113
260 268 266 266 263 264 267 277 286 277 301 290 248 149 254 263 272 302 293 20 353 339 343 342 324 310 316 290 116 111 113 116 103 102 114 104 100 101 97 58 64 58 62 69
272 267 263 254 249 232 242 254 259 266 263 273 245 111 284 289 286 34 45 36 24 21 13 5 12 28 23 59 71 83 82 64 87 94 93 82 84 84 84 80 84 75 46 66
285 284 266 263 246 211 222 251 254 232 249 264 194 239 264 280 62 71 77 72 59 49 35 37 43 42 49 58 63 70 73 77 80 79 82 103 90 85 83 86 82 88 92 57
309 352 331 277 143 173 203 235 225 218 236 232 240 246 72 89 92 83 67 53 58 48 34 39 54 53 56 64 68 66 67 67 78 85 95 102 101 91 93 102 115 143 122 126
335 8 20 70 132 191 207 215 206 212 224 188 195 93 110 109 95 87 75 68 62 51 48 38 55 37 26 57 96 103 104 105 126 139 111 120 137 126 140 155 138 124 115 92
317 116 183 200 193 197 214 173 180 213 53 92 97 114 112 106 106 105 97 90 70 57 46 33 53 57 49 37 49 54 51 41 40 46 64 61 68 65 69 70 67 94 107 109
0 339 79 201 212 181 266 241 148 92 98 104 108 105 103 103 101 97 104 96 86 74 52 58 52 64 64 61 59 55 52 58 51 52 49 28 46 64 95 106 93 89 115 159
351 8 8 36 65 72 74 77 92 101 103 105 100 94 87 85 92 88 81 75 67 72 83 86 82 76 79 73 73 78 75 56 41 27 24 52 51 67 63 63 121 128 141 160
43 43 40 73 76 88 91 94 95 97 97 95 99 101 112 108 93 93 78 82 68 100 84 73 80 81 91 95 89 87 107 135 130 121 140 143 145 130 137 94 79 93 92 80
35 54 62 79 82 82 87 94 98 99 101 104 98 103 106 106 91 83 94 91 105 60 74 74 59 23 56 76 91 110 117 114 102 94 89 80 71 74 80 72 67 64 66 50
38 68 74 85 84 89 89 89 92 96 102 104 114 117 89 82 83 95 91 73 92 85 88 70 28 11 26 72 70 77 82 83 86 82 68 59 59 69 64 41 15 32 25 12
61 49 62 85 95 94 97 89 96 105 115 95 98 106 103 95 87 81 79 71 69 78 69 40 20 28 81 75 75 76 76 76 78 88 97 71 74 35 11 137 306 20 38 171
75 74 72 80 89 99 105 114 119 108 103 108 113 111 104 93 97 107 107 117 128 105 94 43 8 71 90 94 91 92 93 86 58 34 59 64 57 24 61 70 69 46 347 343
115 107 100 93 109 125 124 113 93 79 77 98 107 107 107 116 123 126 127 136 137 140 123 129 108 101 110 130 149 153 149 114 212 61 31 44 26 356 360 22 46 32 24 23
94 100 106 118 124 131 107 77 92 107 153 271 90 83 100 112 125 134 137 126 117 114 132 146 147 140 146 151 107 88 104 97 58 44 54 56 37 25 12 11 105 35 39 25